Year,Month,Day,Hour,Minute,Value (Times are PST for temperature in C)
2017,01,23,00,00,5.30
2017,01,23,00,01,5.30
2017,01,23,00,02,5.30
2017,01,23,00,03,5.30
2017,01,23,00,04,5.30
2017,01,23,00,05,5.30
2017,01,23,00,06,5.30
2017,01,23,00,07,5.20
2017,01,23,00,08,5.20
2017,01,23,00,09,5.20
2017,01,23,00,10,5.20
2017,01,23,00,11,5.20
2017,01,23,00,12,5.20
2017,01,23,00,13,5.20
2017,01,23,00,14,5.20
2017,01,23,00,15,5.20
2017,01,23,00,16,5.20
2017,01,23,00,17,5.20
2017,01,23,00,18,5.20
2017,01,23,00,19,5.20
2017,01,23,00,20,5.20
2017,01,23,00,21,5.20
2017,01,23,00,22,5.20
2017,01,23,00,23,5.20
2017,01,23,00,24,5.20
2017,01,23,00,25,5.20
2017,01,23,00,26,5.20
2017,01,23,00,27,5.20
2017,01,23,00,28,5.20
2017,01,23,00,29,5.20
2017,01,23,00,30,5.20
2017,01,23,00,31,5.10
2017,01,23,00,32,5.10
2017,01,23,00,33,5.10
2017,01,23,00,34,5.10
2017,01,23,00,35,5.10
2017,01,23,00,36,5.10
2017,01,23,00,37,5.10
2017,01,23,00,38,5.00
2017,01,23,00,39,5.00
2017,01,23,00,40,5.00
2017,01,23,00,41,5.00
2017,01,23,00,42,5.00
2017,01,23,00,43,5.00
2017,01,23,00,44,5.00
2017,01,23,00,45,5.00
2017,01,23,00,46,4.90
2017,01,23,00,47,4.90
2017,01,23,00,48,4.90
2017,01,23,00,49,4.90
2017,01,23,00,50,4.90
2017,01,23,00,51,4.90
2017,01,23,00,52,4.90
2017,01,23,00,53,4.90
2017,01,23,00,54,4.90
2017,01,23,00,55,4.80
2017,01,23,00,56,4.80
2017,01,23,00,57,4.80
2017,01,23,00,58,4.80
2017,01,23,00,59,4.80
2017,01,23,01,00,4.80
2017,01,23,01,01,4.80
2017,01,23,01,02,4.80
2017,01,23,01,03,4.80
2017,01,23,01,04,4.80
2017,01,23,01,05,4.80
2017,01,23,01,06,4.80
2017,01,23,01,07,4.80
2017,01,23,01,08,4.80
2017,01,23,01,09,4.80
2017,01,23,01,10,4.80
2017,01,23,01,11,4.80
2017,01,23,01,12,4.80
2017,01,23,01,13,4.80
2017,01,23,01,14,4.80
2017,01,23,01,15,4.80
2017,01,23,01,16,4.80
2017,01,23,01,17,4.80
2017,01,23,01,18,4.80
2017,01,23,01,19,4.80
2017,01,23,01,20,4.80
2017,01,23,01,21,4.80
2017,01,23,01,22,4.80
2017,01,23,01,23,4.80
2017,01,23,01,24,4.80
2017,01,23,01,25,4.80
2017,01,23,01,26,4.80
2017,01,23,01,27,4.80
2017,01,23,01,28,4.80
2017,01,23,01,29,4.80
2017,01,23,01,30,4.80
2017,01,23,01,31,4.80
2017,01,23,01,32,4.80
2017,01,23,01,33,4.80
2017,01,23,01,34,4.80
2017,01,23,01,35,4.90
2017,01,23,01,36,4.90
2017,01,23,01,37,4.90
2017,01,23,01,38,4.90
2017,01,23,01,39,4.90
2017,01,23,01,40,4.90
2017,01,23,01,41,4.80
2017,01,23,01,42,4.80
2017,01,23,01,43,4.80
2017,01,23,01,44,4.80
2017,01,23,01,45,4.80
2017,01,23,01,46,4.80
2017,01,23,01,47,4.90
2017,01,23,01,48,4.90
2017,01,23,01,49,4.90
2017,01,23,01,50,4.90
2017,01,23,01,51,4.90
2017,01,23,01,52,4.90
2017,01,23,01,53,4.90
2017,01,23,01,54,4.90
2017,01,23,01,55,4.90
2017,01,23,01,56,4.90
2017,01,23,01,57,4.90
2017,01,23,01,58,4.90
2017,01,23,01,59,4.90
2017,01,23,02,00,4.90
2017,01,23,02,01,4.90
2017,01,23,02,02,4.90
2017,01,23,02,03,4.90
2017,01,23,02,04,4.80
2017,01,23,02,05,4.80
2017,01,23,02,06,4.80
2017,01,23,02,07,4.80
2017,01,23,02,08,4.80
2017,01,23,02,09,4.80
2017,01,23,02,10,4.80
2017,01,23,02,11,4.80
2017,01,23,02,12,4.80
2017,01,23,02,13,4.80
2017,01,23,02,14,4.80
2017,01,23,02,15,4.80
2017,01,23,02,16,4.80
2017,01,23,02,17,4.80
2017,01,23,02,18,4.80
2017,01,23,02,19,4.80
2017,01,23,02,20,4.80
2017,01,23,02,21,4.80
2017,01,23,02,22,4.80
2017,01,23,02,23,4.80
2017,01,23,02,24,4.80
2017,01,23,02,25,4.80
2017,01,23,02,26,4.80
2017,01,23,02,27,4.80
2017,01,23,02,28,4.80
2017,01,23,02,29,4.90
2017,01,23,02,30,4.90
2017,01,23,02,31,4.90
2017,01,23,02,32,4.90
2017,01,23,02,33,4.90
2017,01,23,02,34,4.90
2017,01,23,02,35,4.90
2017,01,23,02,36,4.90
2017,01,23,02,37,4.90
2017,01,23,02,38,4.90
2017,01,23,02,39,4.90
2017,01,23,02,40,4.90
2017,01,23,02,41,4.90
2017,01,23,02,42,4.90
2017,01,23,02,43,4.90
2017,01,23,02,44,4.80
2017,01,23,02,45,4.80
2017,01,23,02,46,4.80
2017,01,23,02,47,4.80
2017,01,23,02,48,4.80
2017,01,23,02,49,4.80
2017,01,23,02,50,4.80
2017,01,23,02,51,4.80
2017,01,23,02,52,4.80
2017,01,23,02,53,4.80
2017,01,23,02,54,4.80
2017,01,23,02,55,4.80
2017,01,23,02,56,4.80
2017,01,23,02,57,4.80
2017,01,23,02,58,4.80
2017,01,23,02,59,4.80
2017,01,23,03,00,4.80
2017,01,23,03,01,4.80
2017,01,23,03,02,4.80
2017,01,23,03,03,4.80
2017,01,23,03,04,4.70
2017,01,23,03,05,4.70
2017,01,23,03,06,4.70
2017,01,23,03,07,4.70
2017,01,23,03,08,4.70
2017,01,23,03,09,4.70
2017,01,23,03,10,4.60
2017,01,23,03,11,4.60
2017,01,23,03,12,4.60
2017,01,23,03,13,4.60
2017,01,23,03,14,4.60
2017,01,23,03,15,4.50
2017,01,23,03,16,4.50
2017,01,23,03,17,4.50
2017,01,23,03,18,4.40
2017,01,23,03,19,4.40
2017,01,23,03,20,4.40
2017,01,23,03,21,4.40
2017,01,23,03,22,4.40
2017,01,23,03,23,4.40
2017,01,23,03,24,4.40
2017,01,23,03,25,4.30
2017,01,23,03,26,4.30
2017,01,23,03,27,4.30
2017,01,23,03,28,4.30
2017,01,23,03,29,4.30
2017,01,23,03,30,4.30
2017,01,23,03,31,4.30
2017,01,23,03,32,4.30
2017,01,23,03,33,4.30
2017,01,23,03,34,4.30
2017,01,23,03,35,4.30
2017,01,23,03,36,4.30
2017,01,23,03,37,4.30
2017,01,23,03,38,4.30
2017,01,23,03,39,4.30
2017,01,23,03,40,4.40
2017,01,23,03,41,4.40
2017,01,23,03,42,4.40
2017,01,23,03,43,4.40
2017,01,23,03,44,4.40
2017,01,23,03,45,4.40
2017,01,23,03,46,4.40
2017,01,23,03,47,4.40
2017,01,23,03,48,4.40
2017,01,23,03,49,4.40
2017,01,23,03,50,4.40
2017,01,23,03,51,4.40
2017,01,23,03,52,4.40
2017,01,23,03,53,4.30
2017,01,23,03,54,4.30
2017,01,23,03,55,4.30
2017,01,23,03,56,4.30
2017,01,23,03,57,4.30
2017,01,23,03,58,4.30
2017,01,23,03,59,4.30
2017,01,23,04,00,4.20
2017,01,23,04,01,4.20
2017,01,23,04,02,4.20
2017,01,23,04,03,4.20
2017,01,23,04,04,4.20
2017,01,23,04,05,4.10
2017,01,23,04,06,4.10
2017,01,23,04,07,4.10
2017,01,23,04,08,4.00
2017,01,23,04,09,4.00
2017,01,23,04,10,3.90
2017,01,23,04,11,3.90
2017,01,23,04,12,3.90
2017,01,23,04,13,3.80
2017,01,23,04,14,3.80
2017,01,23,04,15,3.80
2017,01,23,04,16,3.70
2017,01,23,04,17,3.70
2017,01,23,04,18,3.70
2017,01,23,04,19,3.70
2017,01,23,04,20,3.60
2017,01,23,04,21,3.60
2017,01,23,04,22,3.60
2017,01,23,04,23,3.60
2017,01,23,04,24,3.60
2017,01,23,04,25,3.60
2017,01,23,04,26,3.50
2017,01,23,04,27,3.50
2017,01,23,04,28,3.50
2017,01,23,04,29,3.50
2017,01,23,04,30,3.40
2017,01,23,04,31,3.40
2017,01,23,04,32,3.40
2017,01,23,04,33,3.40
2017,01,23,04,34,3.40
2017,01,23,04,35,3.40
2017,01,23,04,36,3.40
2017,01,23,04,37,3.40
2017,01,23,04,38,3.30
2017,01,23,04,39,3.30
2017,01,23,04,40,3.30
2017,01,23,04,41,3.30
2017,01,23,04,42,3.30
2017,01,23,04,43,3.20
2017,01,23,04,44,3.20
2017,01,23,04,45,3.20
2017,01,23,04,46,3.20
2017,01,23,04,47,3.30
2017,01,23,04,48,3.30
2017,01,23,04,49,3.30
2017,01,23,04,50,3.30
2017,01,23,04,51,3.30
2017,01,23,04,52,3.30
2017,01,23,04,53,3.30
2017,01,23,04,54,3.30
2017,01,23,04,55,3.30
2017,01,23,04,56,3.30
2017,01,23,04,57,3.30
2017,01,23,04,58,3.20
2017,01,23,04,59,3.20
2017,01,23,05,00,3.20
2017,01,23,05,01,3.20
2017,01,23,05,02,3.10
2017,01,23,05,03,3.10
2017,01,23,05,04,3.10
2017,01,23,05,05,3.00
2017,01,23,05,06,3.00
2017,01,23,05,07,3.00
2017,01,23,05,08,2.90
2017,01,23,05,09,2.90
2017,01,23,05,10,2.90
2017,01,23,05,11,2.90
2017,01,23,05,12,2.90
2017,01,23,05,13,2.80
2017,01,23,05,14,2.80
2017,01,23,05,15,2.80
2017,01,23,05,16,2.80
2017,01,23,05,17,2.80
2017,01,23,05,18,2.80
2017,01,23,05,19,2.80
2017,01,23,05,20,2.70
2017,01,23,05,21,2.70
2017,01,23,05,22,2.70
2017,01,23,05,23,2.70
2017,01,23,05,24,2.70
2017,01,23,05,25,2.70
2017,01,23,05,26,2.70
2017,01,23,05,27,2.70
2017,01,23,05,28,2.70
2017,01,23,05,29,2.70
2017,01,23,05,30,2.60
2017,01,23,05,31,2.60
2017,01,23,05,32,2.60
2017,01,23,05,33,2.50
2017,01,23,05,34,2.50
2017,01,23,05,35,2.50
2017,01,23,05,36,2.40
2017,01,23,05,37,2.40
2017,01,23,05,38,2.40
2017,01,23,05,39,2.40
2017,01,23,05,40,2.30
2017,01,23,05,41,2.30
2017,01,23,05,42,2.30
2017,01,23,05,43,2.30
2017,01,23,05,44,2.40
2017,01,23,05,45,2.40
2017,01,23,05,46,2.40
2017,01,23,05,47,2.40
2017,01,23,05,48,2.40
2017,01,23,05,49,2.40
2017,01,23,05,50,2.40
2017,01,23,05,51,2.30
2017,01,23,05,52,2.30
2017,01,23,05,53,2.30
2017,01,23,05,54,2.30
2017,01,23,05,55,2.30
2017,01,23,05,56,2.20
2017,01,23,05,57,2.20
2017,01,23,05,58,2.20
2017,01,23,05,59,2.20
2017,01,23,06,00,2.20
2017,01,23,06,01,2.20
2017,01,23,06,02,2.20
2017,01,23,06,03,2.20
2017,01,23,06,04,2.20
2017,01,23,06,05,2.20
2017,01,23,06,06,2.20
2017,01,23,06,07,2.20
2017,01,23,06,08,2.10
2017,01,23,06,09,2.10
2017,01,23,06,10,2.10
2017,01,23,06,11,2.10
2017,01,23,06,12,2.10
2017,01,23,06,13,2.00
2017,01,23,06,14,2.00
2017,01,23,06,15,2.00
2017,01,23,06,16,2.00
2017,01,23,06,17,2.00
2017,01,23,06,18,1.90
2017,01,23,06,19,1.90
2017,01,23,06,20,1.90
2017,01,23,06,21,1.90
2017,01,23,06,22,1.90
2017,01,23,06,23,1.90
2017,01,23,06,24,1.90
2017,01,23,06,25,1.90
2017,01,23,06,26,1.90
2017,01,23,06,27,1.80
2017,01,23,06,28,1.80
2017,01,23,06,29,1.80
2017,01,23,06,30,1.70
2017,01,23,06,31,1.70
2017,01,23,06,32,1.70
2017,01,23,06,33,1.70
2017,01,23,06,34,1.70
2017,01,23,06,35,1.70
2017,01,23,06,36,1.70
2017,01,23,06,37,1.70
2017,01,23,06,38,1.70
2017,01,23,06,39,1.60
2017,01,23,06,40,1.60
2017,01,23,06,41,1.60
2017,01,23,06,42,1.60
2017,01,23,06,43,1.60
2017,01,23,06,44,1.50
2017,01,23,06,45,1.50
2017,01,23,06,46,1.50
2017,01,23,06,47,1.50
2017,01,23,06,48,1.50
2017,01,23,06,49,1.50
2017,01,23,06,50,1.50
2017,01,23,06,51,1.50
2017,01,23,06,52,1.50
2017,01,23,06,53,1.40
2017,01,23,06,54,1.40
2017,01,23,06,55,1.40
2017,01,23,06,56,1.40
2017,01,23,06,57,1.40
2017,01,23,06,58,1.30
2017,01,23,06,59,1.30
2017,01,23,07,00,1.30
2017,01,23,07,01,1.30
2017,01,23,07,02,1.20
2017,01,23,07,03,1.20
2017,01,23,07,04,1.20
2017,01,23,07,05,1.20
2017,01,23,07,06,1.20
2017,01,23,07,07,1.20
2017,01,23,07,08,1.20
2017,01,23,07,09,1.20
2017,01,23,07,10,1.20
2017,01,23,07,11,1.20
2017,01,23,07,12,1.20
2017,01,23,07,13,1.20
2017,01,23,07,14,1.20
2017,01,23,07,15,1.20
2017,01,23,07,16,1.20
2017,01,23,07,17,1.20
2017,01,23,07,18,1.20
2017,01,23,07,19,1.20
2017,01,23,07,20,1.10
2017,01,23,07,21,1.10
2017,01,23,07,22,1.10
2017,01,23,07,23,1.10
2017,01,23,07,24,1.00
2017,01,23,07,25,1.00
2017,01,23,07,26,1.00
2017,01,23,07,27,1.00
2017,01,23,07,28,1.00
2017,01,23,07,29,0.90
2017,01,23,07,30,0.90
2017,01,23,07,31,0.90
2017,01,23,07,32,0.90
2017,01,23,07,33,0.90
2017,01,23,07,34,0.90
2017,01,23,07,35,0.80
2017,01,23,07,36,0.80
2017,01,23,07,37,0.80
2017,01,23,07,38,0.80
2017,01,23,07,39,0.80
2017,01,23,07,40,0.80
2017,01,23,07,41,0.80
2017,01,23,07,42,0.80
2017,01,23,07,43,0.80
2017,01,23,07,44,0.80
2017,01,23,07,45,0.80
2017,01,23,07,46,0.80
2017,01,23,07,47,0.70
2017,01,23,07,48,0.70
2017,01,23,07,49,0.70
2017,01,23,07,50,0.70
2017,01,23,07,51,0.70
2017,01,23,07,52,0.70
2017,01,23,07,53,0.80
2017,01,23,07,54,0.80
2017,01,23,07,55,0.80
2017,01,23,07,56,0.90
2017,01,23,07,57,0.90
2017,01,23,07,58,0.90
2017,01,23,07,59,0.90
2017,01,23,08,00,0.90
2017,01,23,08,01,0.90
2017,01,23,08,02,0.80
2017,01,23,08,03,0.80
2017,01,23,08,04,0.80
2017,01,23,08,05,0.80
2017,01,23,08,06,0.80
2017,01,23,08,07,0.70
2017,01,23,08,08,0.70
2017,01,23,08,09,0.70
2017,01,23,08,10,0.70
2017,01,23,08,11,0.70
2017,01,23,08,12,0.70
2017,01,23,08,13,0.60
2017,01,23,08,14,0.60
2017,01,23,08,15,0.60
2017,01,23,08,16,0.60
2017,01,23,08,17,0.60
2017,01,23,08,18,0.60
2017,01,23,08,19,0.60
2017,01,23,08,20,0.60
2017,01,23,08,21,0.60
2017,01,23,08,22,0.60
2017,01,23,08,23,0.60
2017,01,23,08,24,0.60
2017,01,23,08,25,0.60
2017,01,23,08,26,0.60
2017,01,23,08,27,0.60
2017,01,23,08,28,0.60
2017,01,23,08,29,0.60
2017,01,23,08,30,0.60
2017,01,23,08,31,0.70
2017,01,23,08,32,0.70
2017,01,23,08,33,0.70
2017,01,23,08,34,0.80
2017,01,23,08,35,0.80
2017,01,23,08,36,0.80
2017,01,23,08,37,0.90
2017,01,23,08,38,0.90
2017,01,23,08,39,0.90
2017,01,23,08,40,0.90
2017,01,23,08,41,1.00
2017,01,23,08,42,1.10
2017,01,23,08,43,1.20
2017,01,23,08,44,1.20
2017,01,23,08,45,1.30
2017,01,23,08,46,1.40
2017,01,23,08,47,1.50
2017,01,23,08,48,1.60
2017,01,23,08,49,1.70
2017,01,23,08,50,1.80
2017,01,23,08,51,1.80
2017,01,23,08,52,1.80
2017,01,23,08,53,1.90
2017,01,23,08,54,2.00
2017,01,23,08,55,2.00
2017,01,23,08,56,2.10
2017,01,23,08,57,2.10
2017,01,23,08,58,2.20
2017,01,23,08,59,2.20
2017,01,23,09,00,2.30
2017,01,23,09,01,2.30
2017,01,23,09,02,2.30
2017,01,23,09,03,2.40
2017,01,23,09,04,2.40
2017,01,23,09,05,2.40
2017,01,23,09,06,2.40
2017,01,23,09,07,2.40
2017,01,23,09,08,2.40
2017,01,23,09,09,2.50
2017,01,23,09,10,2.50
2017,01,23,09,11,2.60
2017,01,23,09,12,2.60
2017,01,23,09,13,2.60
2017,01,23,09,14,2.70
2017,01,23,09,15,2.70
2017,01,23,09,16,2.70
2017,01,23,09,17,2.80
2017,01,23,09,18,2.80
2017,01,23,09,19,2.80
2017,01,23,09,20,2.90
2017,01,23,09,21,2.90
2017,01,23,09,22,2.90
2017,01,23,09,23,3.00
2017,01,23,09,24,3.00
2017,01,23,09,25,3.00
2017,01,23,09,26,3.10
2017,01,23,09,27,3.10
2017,01,23,09,28,3.10
2017,01,23,09,29,3.10
2017,01,23,09,30,3.10
2017,01,23,09,31,3.10
2017,01,23,09,32,3.10
2017,01,23,09,33,3.10
2017,01,23,09,34,3.10
2017,01,23,09,35,3.10
2017,01,23,09,36,3.20
2017,01,23,09,37,3.20
2017,01,23,09,38,3.20
2017,01,23,09,39,3.20
2017,01,23,09,40,3.20
2017,01,23,09,41,3.30
2017,01,23,09,42,3.30
2017,01,23,09,43,3.30
2017,01,23,09,44,3.30
2017,01,23,09,45,3.30
2017,01,23,09,46,3.40
2017,01,23,09,47,3.40
2017,01,23,09,48,3.40
2017,01,23,09,49,3.40
2017,01,23,09,50,3.40
2017,01,23,09,51,3.50
2017,01,23,09,52,3.50
2017,01,23,09,53,3.60
2017,01,23,09,54,3.60
2017,01,23,09,55,3.60
2017,01,23,09,56,3.60
2017,01,23,09,57,3.60
2017,01,23,09,58,3.60
2017,01,23,09,59,3.70
2017,01,23,10,00,3.70
2017,01,23,10,01,3.70
2017,01,23,10,02,3.70
2017,01,23,10,03,3.70
2017,01,23,10,04,3.70
2017,01,23,10,05,3.70
2017,01,23,10,06,3.70
2017,01,23,10,07,3.70
2017,01,23,10,08,3.70
2017,01,23,10,09,3.70
2017,01,23,10,10,3.70
2017,01,23,10,11,3.70
2017,01,23,10,12,3.70
2017,01,23,10,13,3.70
2017,01,23,10,14,3.70
2017,01,23,10,15,3.70
2017,01,23,10,16,3.70
2017,01,23,10,17,3.70
2017,01,23,10,18,3.70
2017,01,23,10,19,3.60
2017,01,23,10,20,3.60
2017,01,23,10,21,3.60
2017,01,23,10,22,3.60
2017,01,23,10,23,3.60
2017,01,23,10,24,3.60
2017,01,23,10,25,3.60
2017,01,23,10,26,3.60
2017,01,23,10,27,3.60
2017,01,23,10,28,3.70
2017,01,23,10,29,3.70
2017,01,23,10,30,3.70
2017,01,23,10,31,3.70
2017,01,23,10,32,3.70
2017,01,23,10,33,3.70
2017,01,23,10,34,3.70
2017,01,23,10,35,3.70
2017,01,23,10,36,3.80
2017,01,23,10,37,3.80
2017,01,23,10,38,3.80
2017,01,23,10,39,3.80
2017,01,23,10,40,3.90
2017,01,23,10,41,3.90
2017,01,23,10,42,3.90
2017,01,23,10,43,3.90
2017,01,23,10,44,4.00
2017,01,23,10,45,4.00
2017,01,23,10,46,4.00
2017,01,23,10,47,4.10
2017,01,23,10,48,4.10
2017,01,23,10,49,4.10
2017,01,23,10,50,4.10
2017,01,23,10,51,4.20
2017,01,23,10,52,4.20
2017,01,23,10,53,4.20
2017,01,23,10,54,4.20
2017,01,23,10,55,4.30
2017,01,23,10,56,4.30
2017,01,23,10,57,4.30
2017,01,23,10,58,4.40
2017,01,23,10,59,4.50
2017,01,23,11,00,4.50
2017,01,23,11,01,4.60
2017,01,23,11,02,4.60
2017,01,23,11,03,4.70
2017,01,23,11,04,4.70
2017,01,23,11,05,4.70
2017,01,23,11,06,4.70
2017,01,23,11,07,4.70
2017,01,23,11,08,4.80
2017,01,23,11,09,4.80
2017,01,23,11,10,4.80
2017,01,23,11,11,4.80
2017,01,23,11,12,4.90
2017,01,23,11,13,4.90
2017,01,23,11,14,5.00
2017,01,23,11,15,5.00
2017,01,23,11,16,5.10
2017,01,23,11,17,5.10
2017,01,23,11,18,5.10
2017,01,23,11,19,5.20
2017,01,23,11,20,5.20
2017,01,23,11,21,5.30
2017,01,23,11,22,5.30
2017,01,23,11,23,5.30
2017,01,23,11,24,5.40
2017,01,23,11,25,5.40
2017,01,23,11,26,5.40
2017,01,23,11,27,5.50
2017,01,23,11,28,5.50
2017,01,23,11,29,5.60
2017,01,23,11,30,5.60
2017,01,23,11,31,5.60
2017,01,23,11,32,5.70
2017,01,23,11,33,5.70
2017,01,23,11,34,5.70
2017,01,23,11,35,5.80
2017,01,23,11,36,5.80
2017,01,23,11,37,5.80
2017,01,23,11,38,5.80
2017,01,23,11,39,5.90
2017,01,23,11,40,5.90
2017,01,23,11,41,6.00
2017,01,23,11,42,6.00
2017,01,23,11,43,6.10
2017,01,23,11,44,6.10
2017,01,23,11,45,6.10
2017,01,23,11,46,6.10
2017,01,23,11,47,6.10
2017,01,23,11,48,6.10
2017,01,23,11,49,6.20
2017,01,23,11,50,6.20
2017,01,23,11,51,6.20
2017,01,23,11,52,6.30
2017,01,23,11,53,6.30
2017,01,23,11,54,6.30
2017,01,23,11,55,6.30
2017,01,23,11,56,6.30
2017,01,23,11,57,6.40
2017,01,23,11,58,6.40
2017,01,23,11,59,6.40
2017,01,23,12,00,6.40
2017,01,23,12,01,6.50
2017,01,23,12,02,6.60
2017,01,23,12,03,6.60
2017,01,23,12,04,6.70
2017,01,23,12,05,6.70
2017,01,23,12,06,6.80
2017,01,23,12,07,6.80
2017,01,23,12,08,6.80
2017,01,23,12,09,6.90
2017,01,23,12,10,6.90
2017,01,23,12,11,6.90
2017,01,23,12,12,6.90
2017,01,23,12,13,6.90
2017,01,23,12,14,6.90
2017,01,23,12,15,6.90
2017,01,23,12,16,6.90
2017,01,23,12,17,7.00
2017,01,23,12,18,7.00
2017,01,23,12,19,7.00
2017,01,23,12,20,7.00
2017,01,23,12,21,7.10
2017,01,23,12,22,7.10
2017,01,23,12,23,7.10
2017,01,23,12,24,7.10
2017,01,23,12,25,7.10
2017,01,23,12,26,7.10
2017,01,23,12,27,7.20
2017,01,23,12,28,7.20
2017,01,23,12,29,7.20
2017,01,23,12,30,7.20
2017,01,23,12,31,7.20
2017,01,23,12,32,7.20
2017,01,23,12,33,7.30
2017,01,23,12,34,7.30
2017,01,23,12,35,7.30
2017,01,23,12,36,7.30
2017,01,23,12,37,7.30
2017,01,23,12,38,7.30
2017,01,23,12,39,7.40
2017,01,23,12,40,7.40
2017,01,23,12,41,7.40
2017,01,23,12,42,7.50
2017,01,23,12,43,7.50
2017,01,23,12,44,7.50
2017,01,23,12,45,7.50
2017,01,23,12,46,7.50
2017,01,23,12,47,7.50
2017,01,23,12,48,7.50
2017,01,23,12,49,7.50
2017,01,23,12,50,7.50
2017,01,23,12,51,7.50
2017,01,23,12,52,7.60
2017,01,23,12,53,7.60
2017,01,23,12,54,7.60
2017,01,23,12,55,7.60
2017,01,23,12,56,7.60
2017,01,23,12,57,7.60
2017,01,23,12,58,7.60
2017,01,23,12,59,7.70
2017,01,23,13,00,7.70
2017,01,23,13,01,7.70
2017,01,23,13,02,7.70
2017,01,23,13,03,7.70
2017,01,23,13,04,7.70
2017,01,23,13,05,7.80
2017,01,23,13,06,7.80
2017,01,23,13,07,7.80
2017,01,23,13,08,7.80
2017,01,23,13,09,7.80
2017,01,23,13,10,7.80
2017,01,23,13,11,7.80
2017,01,23,13,12,7.80
2017,01,23,13,13,7.80
2017,01,23,13,14,7.90
2017,01,23,13,15,7.90
2017,01,23,13,16,7.90
2017,01,23,13,17,8.00
2017,01,23,13,18,8.00
2017,01,23,13,19,8.00
2017,01,23,13,20,8.10
2017,01,23,13,21,8.10
2017,01,23,13,22,8.10
2017,01,23,13,23,8.10
2017,01,23,13,24,8.10
2017,01,23,13,25,8.10
2017,01,23,13,26,8.10
2017,01,23,13,27,8.10
2017,01,23,13,28,8.20
2017,01,23,13,29,8.20
2017,01,23,13,30,8.20
2017,01,23,13,31,8.20
2017,01,23,13,32,8.20
2017,01,23,13,33,8.30
2017,01,23,13,34,8.30
2017,01,23,13,35,8.30
2017,01,23,13,36,8.30
2017,01,23,13,37,8.30
2017,01,23,13,38,8.30
2017,01,23,13,39,8.30
2017,01,23,13,40,8.40
2017,01,23,13,41,8.40
2017,01,23,13,42,8.40
2017,01,23,13,43,8.40
2017,01,23,13,44,8.40
2017,01,23,13,45,8.40
2017,01,23,13,46,8.50
2017,01,23,13,47,8.50
2017,01,23,13,48,8.50
2017,01,23,13,49,8.50
2017,01,23,13,50,8.50
2017,01,23,13,51,8.60
2017,01,23,13,52,8.60
2017,01,23,13,53,8.70
2017,01,23,13,54,8.70
2017,01,23,13,55,8.70
2017,01,23,13,56,8.70
2017,01,23,13,57,8.60
2017,01,23,13,58,8.60
2017,01,23,13,59,8.60
2017,01,23,14,00,8.60
2017,01,23,14,01,8.70
2017,01,23,14,02,8.80
2017,01,23,14,03,8.80
2017,01,23,14,04,8.80
2017,01,23,14,05,8.80
2017,01,23,14,06,8.80
2017,01,23,14,07,8.80
2017,01,23,14,08,8.80
2017,01,23,14,09,8.80
2017,01,23,14,10,8.80
2017,01,23,14,11,8.80
2017,01,23,14,12,8.80
2017,01,23,14,13,8.80
2017,01,23,14,14,8.80
2017,01,23,14,15,8.80
2017,01,23,14,16,8.90
2017,01,23,14,17,8.90
2017,01,23,14,18,8.90
2017,01,23,14,19,8.90
2017,01,23,14,20,8.90
2017,01,23,14,21,8.90
2017,01,23,14,22,8.80
2017,01,23,14,23,8.80
2017,01,23,14,24,8.80
2017,01,23,14,25,8.80
2017,01,23,14,26,8.80
2017,01,23,14,27,8.80
2017,01,23,14,28,8.80
2017,01,23,14,29,8.80
2017,01,23,14,30,8.80
2017,01,23,14,31,8.80
2017,01,23,14,32,8.80
2017,01,23,14,33,8.80
2017,01,23,14,34,8.80
2017,01,23,14,35,8.80
2017,01,23,14,36,8.80
2017,01,23,14,37,8.80
2017,01,23,14,38,8.80
2017,01,23,14,39,8.90
2017,01,23,14,40,8.90
2017,01,23,14,41,8.90
2017,01,23,14,42,8.90
2017,01,23,14,43,8.90
2017,01,23,14,44,8.90
2017,01,23,14,45,8.90
2017,01,23,14,46,8.90
2017,01,23,14,47,8.90
2017,01,23,14,48,8.90
2017,01,23,14,49,8.80
2017,01,23,14,50,8.80
2017,01,23,14,51,8.80
2017,01,23,14,52,8.80
2017,01,23,14,53,8.90
2017,01,23,14,54,8.90
2017,01,23,14,55,8.90
2017,01,23,14,56,8.90
2017,01,23,14,57,9.00
2017,01,23,14,58,9.00
2017,01,23,14,59,9.10
2017,01,23,15,00,9.10
2017,01,23,15,01,9.10
2017,01,23,15,02,9.10
2017,01,23,15,03,9.10
2017,01,23,15,04,9.10
2017,01,23,15,05,9.10
2017,01,23,15,06,9.10
2017,01,23,15,07,9.10
2017,01,23,15,08,9.10
2017,01,23,15,09,9.10
2017,01,23,15,10,9.10
2017,01,23,15,11,9.10
2017,01,23,15,12,9.10
2017,01,23,15,13,9.10
2017,01,23,15,14,9.10
2017,01,23,15,15,9.20
2017,01,23,15,16,9.20
2017,01,23,15,17,9.20
2017,01,23,15,18,9.20
2017,01,23,15,19,9.30
2017,01,23,15,20,9.30
2017,01,23,15,21,9.30
2017,01,23,15,22,9.30
2017,01,23,15,23,9.30
2017,01,23,15,24,9.30
2017,01,23,15,25,9.30
2017,01,23,15,26,9.30
2017,01,23,15,27,9.30
2017,01,23,15,28,9.30
2017,01,23,15,29,9.30
2017,01,23,15,30,9.30
2017,01,23,15,31,9.30
2017,01,23,15,32,9.30
2017,01,23,15,33,9.30
2017,01,23,15,34,9.30
2017,01,23,15,35,9.30
2017,01,23,15,36,9.30
2017,01,23,15,37,9.20
2017,01,23,15,38,9.20
2017,01,23,15,39,9.20
2017,01,23,15,40,9.30
2017,01,23,15,41,9.30
2017,01,23,15,42,9.30
2017,01,23,15,43,9.30
2017,01,23,15,44,9.30
2017,01,23,15,45,9.30
2017,01,23,15,46,9.30
2017,01,23,15,47,9.30
2017,01,23,15,48,9.20
2017,01,23,15,49,9.20
2017,01,23,15,50,9.20
2017,01,23,15,51,9.20
2017,01,23,15,52,9.10
2017,01,23,15,53,9.10
2017,01,23,15,54,9.10
2017,01,23,15,55,9.10
2017,01,23,15,56,9.10
2017,01,23,15,57,9.10
2017,01,23,15,58,9.00
2017,01,23,15,59,9.00
2017,01,23,16,00,8.90
2017,01,23,16,01,8.80
2017,01,23,16,02,8.80
2017,01,23,16,03,8.70
2017,01,23,16,04,8.70
2017,01,23,16,05,8.70
2017,01,23,16,06,8.60
2017,01,23,16,07,8.50
2017,01,23,16,08,8.40
2017,01,23,16,09,8.30
2017,01,23,16,10,8.20
2017,01,23,16,11,8.10
2017,01,23,16,12,8.00
2017,01,23,16,13,7.90
2017,01,23,16,14,7.80
2017,01,23,16,15,7.70
2017,01,23,16,16,7.60
2017,01,23,16,17,7.50
2017,01,23,16,18,7.50
2017,01,23,16,19,7.40
2017,01,23,16,20,7.30
2017,01,23,16,21,7.20
2017,01,23,16,22,7.20
2017,01,23,16,23,7.10
2017,01,23,16,24,7.10
2017,01,23,16,25,7.10
2017,01,23,16,26,7.00
2017,01,23,16,27,7.00
2017,01,23,16,28,6.90
2017,01,23,16,29,6.80
2017,01,23,16,30,6.80
2017,01,23,16,31,6.80
2017,01,23,16,32,6.80
2017,01,23,16,33,6.70
2017,01,23,16,34,6.70
2017,01,23,16,35,6.60
2017,01,23,16,36,6.60
2017,01,23,16,37,6.60
2017,01,23,16,38,6.50
2017,01,23,16,39,6.50
2017,01,23,16,40,6.40
2017,01,23,16,41,6.40
2017,01,23,16,42,6.40
2017,01,23,16,43,6.30
2017,01,23,16,44,6.30
2017,01,23,16,45,6.30
2017,01,23,16,46,6.30
2017,01,23,16,47,6.20
2017,01,23,16,48,6.20
2017,01,23,16,49,6.20
2017,01,23,16,50,6.20
2017,01,23,16,51,6.20
2017,01,23,16,52,6.10
2017,01,23,16,53,6.00
2017,01,23,16,54,6.00
2017,01,23,16,55,5.90
2017,01,23,16,56,5.90
2017,01,23,16,57,5.80
2017,01,23,16,58,5.80
2017,01,23,16,59,5.80
2017,01,23,17,00,5.70
2017,01,23,17,01,5.70
2017,01,23,17,02,5.70
2017,01,23,17,03,5.70
2017,01,23,17,04,5.60
2017,01,23,17,05,5.60
2017,01,23,17,06,5.60
2017,01,23,17,07,5.60
2017,01,23,17,08,5.60
2017,01,23,17,09,5.50
2017,01,23,17,10,5.50
2017,01,23,17,11,5.40
2017,01,23,17,12,5.40
2017,01,23,17,13,5.40
2017,01,23,17,14,5.40
2017,01,23,17,15,5.40
2017,01,23,17,16,5.30
2017,01,23,17,17,5.30
2017,01,23,17,18,5.30
2017,01,23,17,19,5.20
2017,01,23,17,20,5.20
2017,01,23,17,21,5.20
2017,01,23,17,22,5.10
2017,01,23,17,23,5.00
2017,01,23,17,24,5.00
2017,01,23,17,25,4.90
2017,01,23,17,26,4.90
2017,01,23,17,27,4.80
2017,01,23,17,28,4.80
2017,01,23,17,29,4.80
2017,01,23,17,30,4.80
2017,01,23,17,31,4.80
2017,01,23,17,32,4.80
2017,01,23,17,33,4.80
2017,01,23,17,34,4.80
2017,01,23,17,35,4.80
2017,01,23,17,36,4.70
2017,01,23,17,37,4.70
2017,01,23,17,38,4.70
2017,01,23,17,39,4.70
2017,01,23,17,40,4.60
2017,01,23,17,41,4.60
2017,01,23,17,42,4.60
2017,01,23,17,43,4.50
2017,01,23,17,44,4.50
2017,01,23,17,45,4.40
2017,01,23,17,46,4.40
2017,01,23,17,47,4.40
2017,01,23,17,48,4.40
2017,01,23,17,49,4.30
2017,01,23,17,50,4.30
2017,01,23,17,51,4.30
2017,01,23,17,52,4.30
2017,01,23,17,53,4.30
2017,01,23,17,54,4.30
2017,01,23,17,55,4.30
2017,01,23,17,56,4.20
2017,01,23,17,57,4.20
2017,01,23,17,58,4.20
2017,01,23,17,59,4.20
2017,01,23,18,00,4.20
2017,01,23,18,01,4.20
2017,01,23,18,02,4.20
2017,01,23,18,03,4.10
2017,01,23,18,04,4.10
2017,01,23,18,05,4.10
2017,01,23,18,06,4.10